EW4576 Weather Reports


time (UTC)temp
C
wind
direction
speed
KPH
gust
KPH
rain 1hr
cm
rain 24hr
cm
rain mn
cm
humidity
%
barometer
mb
20260506044701 9 193 0.0 0.0 0.00 0.76 0.03 96 1007.2
20260506044202 9 193 0.0 0.0 0.00 0.76 0.03 96 1007.2
20260506044131 9 193 0.0 0.0 0.00 0.76 0.03 97 1007.1
20260506043157 9 193 0.0 0.0 0.00 0.76 0.03 97 1007.2
20260506042705 9 193 0.0 0.0 0.03 0.76 0.03 97 1007.2
20260506042156 9 193 0.0 0.0 0.03 0.76 0.03 96 1007.2
20260506041659 9 193 0.0 0.0 0.03 0.76 0.03 97 1007.2
20260506041635 9 193 0.0 0.0 0.03 0.76 0.03 97 1007.2
20260506040657 9 193 0.0 0.0 0.03 0.76 0.03 97 1007.4
20260506040157 9 193 0.0 0.0 0.03 0.76 0.03 96 1007.3
20260506035655 9 193 0.0 0.0 0.03 0.76 0.00 97 1007.3
20260506035555 9 193 0.0 0.0 0.03 0.76 0.00 96 1007.5
20260506035347 9 193 0.0 0.0 0.03 0.76 0.00 97 1007.4
20260506034155 9 193 0.0 0.0 0.03 0.76 0.00 96 1007.5
20260506033653 9 193 0.0 0.0 0.03 0.76 0.00 96 1007.4
20260506033151 9 193 0.0 0.0 0.03 0.76 0.00 96 1007.4
20260506032652 9 193 0.0 0.0 0.00 0.74 0.00 96 1007.4
20260506032151 10 193 0.0 0.0 0.00 0.74 0.00 96 1007.3
20260506031652 10 193 0.0 0.0 0.00 0.74 0.00 96 1007.3
20260506031518 10 193 0.0 0.0 0.00 0.74 0.00 96 1007.3
20260506031334 10 193 0.0 0.0 0.00 0.74 0.00 96 1007.3
20260506030205 10 193 0.0 0.0 0.00 0.74 0.00 96 1007.2
20260506025649 10 193 0.0 0.0 0.00 0.74 0.00 96 1007.3
20260506025148 10 193 0.0 0.0 0.00 0.74 0.00 96 1007.3
20260506024646 10 193 0.0 0.0 0.00 0.74 0.00 96 1007.5
20260506024149 10 193 0.0 0.0 0.00 0.74 0.00 96 1007.5
20260506023646 10 193 0.0 0.0 0.00 0.74 0.00 96 1007.7
20260506023154 10 193 0.0 0.0 0.00 0.74 0.00 96 1007.8
20260506022649 10 193 0.0 0.0 0.00 0.74 0.00 96 1007.9
20260506022146 10 193 0.0 0.0 0.00 0.74 0.00 96 1007.9
20260506021714 10 193 0.0 0.0 0.00 0.74 0.00 96 1007.8
20260506021656 10 193 0.0 0.0 0.00 0.74 0.00 96 1007.9
20260506020643 10 193 0.0 0.0 0.00 0.74 0.00 96 1007.9
20260506020142 10 193 0.0 0.0 0.00 0.74 0.00 96 1008.0
20260506015642 10 193 0.0 0.0 0.00 0.74 0.00 96 1007.9
20260506015150 10 193 0.0 0.0 0.00 0.74 0.00 96 1007.9
20260506014639 10 193 0.0 0.0 0.00 0.74 0.00 96 1007.9
20260506014138 10 193 0.0 0.0 0.00 0.74 0.00 96 1007.9
20260506013636 10 193 0.0 0.0 0.00 0.74 0.00 96 1007.9
20260506013134 10 193 0.0 0.0 0.00 0.74 0.00 96 1007.9
20260506012637 10 193 0.0 0.0 0.00 0.74 0.00 96 1007.9
20260506012245 10 193 0.0 0.0 0.00 0.74 0.00 95 1007.8
20260506012144 10 193 0.0 0.0 0.00 0.74 0.00 95 1007.9
20260506011137 10 193 0.0 0.0 0.00 0.74 0.00 95 1007.8
20260506010849 10 193 0.0 0.0 0.00 0.74 0.00 95 1007.9
20260506010729 10 193 0.0 0.0 0.00 0.74 0.00 95 1007.8
20260506010224 10 193 0.0 0.0 0.00 0.74 0.00 95 1007.9
20260506005117 10 193 0.0 0.0 0.00 0.74 0.00 95 1007.9
20260506004642 11 193 0.0 0.0 0.00 0.74 0.00 94 1008.0
20260506004622 10 193 0.0 0.0 0.00 0.74 0.00 94 1007.9
20260506003653 11 193 0.0 0.0 0.00 0.74 0.00 93 1008.1
20260506003619 11 193 0.0 0.0 0.00 0.74 0.00 94 1008.1
20260506002610 11 193 0.0 1.6 0.00 0.74 0.00 92 1008.1
20260506002118 11 193 0.0 1.6 0.00 0.74 0.00 92 1008.1
20260506001619 11 196 0.0 1.6 0.00 0.74 0.00 92 1008.2
20260506001118 12 196 0.0 1.6 0.00 0.74 0.00 91 1008.3
20260506000606 12 196 0.0 0.0 0.00 0.74 0.00 91 1008.4
20260506000115 12 196 0.0 1.6 0.00 0.74 0.00 91 1008.4
20260505235608 12 196 0.0 1.6 0.00 0.74 0.00 91 1008.5
20260505235110 12 196 0.0 1.6 0.00 0.74 0.00 91 1008.5
20260505234604 12 186 0.0 1.6 0.00 0.74 0.00 92 1008.6
20260505234104 12 187 0.0 0.0 0.00 0.74 0.00 92 1008.6
20260505233610 12 189 0.0 1.6 0.00 0.74 0.00 92 1008.6
20260505233113 12 189 0.0 3.2 0.00 0.74 0.00 92 1008.6
20260505232607 12 196 0.0 3.2 0.00 0.74 0.00 92 1008.6
20260505232111 12 192 0.0 1.6 0.00 0.74 0.00 93 1008.6
20260505231555 12 192 0.0 0.0 0.00 0.74 0.00 93 1008.6
20260505231058 12 192 0.0 0.0 0.00 0.74 0.00 93 1008.6
20260505230607 12 192 0.0 0.0 0.00 0.74 0.00 93 1008.6
20260505230052 12 192 0.0 3.2 0.00 0.74 0.00 92 1008.7
20260505225549 12 192 0.0 3.2 0.00 0.74 0.00 93 1008.7
20260505225122 12 192 0.0 1.6 0.00 0.74 0.00 93 1008.7
20260505225116 12 192 0.0 1.6 0.00 0.74 0.00 93 1008.6
20260505225043 12 192 0.0 0.0 0.00 0.74 0.00 93 1008.6
20260505223808 12 192 0.0 1.6 0.00 0.74 0.00 94 1008.6
20260505223803 11 192 0.0 0.0 0.00 0.74 0.00 94 1008.6
20260505223757 11 192 0.0 0.0 0.00 0.74 0.00 94 1008.6
20260505223615 12 192 0.0 1.6 0.00 0.74 0.00 94 1008.6
20260505221637 12 192 0.0 0.0 0.00 0.74 0.00 94 1008.5
20260505221556 11 192 0.0 0.0 0.00 0.74 0.00 94 1008.5
20260505220806 12 192 0.0 0.0 0.00 0.74 0.00 93 1008.6
20260505220520 12 192 0.0 0.0 0.00 0.74 0.74 92 1008.6
20260505220254 12 192 0.0 0.0 0.00 0.74 0.00 92 1008.6
20260505215643 12 192 0.0 0.0 0.00 0.74 0.74 92 1008.6
20260505214925 12 192 0.0 0.0 0.00 0.74 0.74 93 1008.7
20260505214629 12 192 0.0 0.0 0.00 0.74 0.74 93 1008.6
20260505213639 12 192 0.0 0.0 0.00 0.74 0.74 93 1008.7
20260505213539 12 192 0.0 0.0 0.00 0.74 0.74 93 1008.7
20260505213132 12 192 0.0 0.0 0.00 0.74 0.74 93 1008.7
20260505212423 12 192 0.0 0.0 0.00 0.74 0.74 93 1008.5
20260505212414 12 192 0.0 0.0 0.00 0.74 0.74 93 1008.7
20260505212333 12 192 0.0 0.0 0.00 0.74 0.74 94 1008.5
20260505212323 12 192 0.0 0.0 0.00 0.74 0.74 93 1008.5
20260505212058 12 192 0.0 0.0 0.00 0.74 0.74 92 1008.7
20260505211655 12 192 0.0 0.0 0.00 0.74 0.74 93 1008.7
20260505211344 12 192 0.0 0.0 0.00 0.74 0.74 93 1008.7
20260505210059 12 192 0.0 0.0 0.00 0.74 0.74 94 1008.7
20260505205558 12 192 0.0 0.0 0.00 0.74 0.74 94 1008.7
20260505205156 12 192 0.0 0.0 0.00 0.74 0.74 94 1008.6
20260505203611 12 192 0.0 0.0 0.00 0.74 0.74 93 1008.5
20260505203223 12 192 0.0 0.0 0.00 0.74 0.74 93 1008.5
20260505202022 13 192 0.0 0.0 0.00 0.74 0.74 92 1008.5
20260505201522 13 192 0.0 0.0 0.00 0.74 0.74 92 1008.4
20260505201016 13 192 0.0 1.6 0.00 0.74 0.74 91 1008.4
20260505200515 13 192 0.0 1.6 0.00 0.74 0.74 92 1008.5
20260505200035 13 192 0.0 1.6 0.00 0.74 0.74 92 1008.5
20260505195558 13 192 0.0 0.0 0.00 0.74 0.74 93 1008.4
20260505195022 13 192 0.0 0.0 0.00 0.74 0.74 93 1008.3
20260505194520 13 192 0.0 0.0 0.00 0.74 0.74 93 1008.2
20260505194336 13 192 0.0 0.0 0.00 0.74 0.74 93 1008.1
20260505193542 13 192 0.0 0.0 0.00 0.74 0.74 93 1008.1
20260505193036 13 192 0.0 0.0 0.00 0.74 0.74 93 1008.0
20260505192537 13 192 0.0 0.0 0.00 0.74 0.74 92 1007.9
20260505192049 13 192 0.0 0.0 0.00 0.74 0.74 92 1007.9
20260505191522 13 192 0.0 0.0 0.03 0.74 0.74 92 1007.9
20260505191048 13 192 0.0 0.0 0.03 0.74 0.74 92 1007.8
20260505190525 13 192 0.0 1.6 0.03 0.74 0.74 91 1007.7
20260505190004 13 192 0.0 1.6 0.03 0.74 0.71 90 1007.7
20260505185501 13 192 0.0 0.0 0.03 0.74 0.71 90 1007.8
20260505185021 13 192 0.0 1.6 0.05 0.74 0.71 90 1007.9
20260505184521 14 192 0.0 1.6 0.05 0.74 0.71 91 1007.8
20260505184249 14 192 0.0 9.7 0.08 0.74 0.71 91 1007.8
20260505184104 14 192 0.0 9.7 0.05 0.74 0.71 90 1007.8
20260505183006 14 200 0.0 6.4 0.10 0.74 0.71 92 1007.8
20260505182704 14 28 0.0 0.0 0.10 0.74 0.71 94 1007.8
20260505182540 14 130 0.0 1.6 0.10 0.74 0.71 94 1007.9
20260505181503 14 28 0.0 0.0 0.08 0.71 0.71 94 1007.8
20260505181004 14 28 0.0 0.0 0.08 0.71 0.71 94 1007.6
20260505180502 14 28 0.0 0.0 0.08 0.71 0.71 94 1007.5
20260505180054 14 28 0.0 0.0 0.08 0.71 0.64 94 1007.5
20260505180020 14 28 0.0 0.0 0.08 0.71 0.64 94 1007.5
20260505175006 14 28 0.0 0.0 0.05 0.71 0.64 94 1007.5
20260505174650 14 28 0.0 0.0 0.03 0.66 0.64 91 1007.7
20260505174532 14 28 0.0 0.0 0.05 0.71 0.64 93 1007.6
20260505174005 14 28 0.0 0.0 0.05 0.69 0.64 92 1007.7
20260505173055 14 25 0.0 0.0 0.00 0.64 0.64 90 1007.9
20260505173006 15 28 0.0 0.0 0.00 0.64 0.64 90 1008.0
20260505172459 14 25 0.0 0.0 0.00 0.64 0.64 89 1008.0
20260505171448 15 25 0.0 0.0 0.00 0.64 0.64 88 1008.0
20260505170949 15 25 0.0 0.0 0.00 0.64 0.64 89 1008.0
20260505170446 15 25 0.0 0.0 0.00 0.64 0.64 88 1007.9
20260505165941 15 25 0.0 0.0 0.00 0.64 0.64 88 1007.9
20260505165439 15 25 0.0 0.0 0.00 0.64 0.64 88 1007.8
20260505164939 15 25 0.0 0.0 0.00 0.64 0.64 86 1007.8
20260505164437 15 25 0.0 0.0 0.00 0.64 0.64 88 1007.7
20260505163936 15 25 0.0 0.0 0.00 0.64 0.64 88 1007.7
20260505163436 15 25 0.0 0.0 0.00 0.64 0.64 89 1007.7
20260505162929 15 25 0.0 0.0 0.00 0.64 0.64 89 1007.8
20260505162434 15 26 0.0 0.0 0.00 0.64 0.64 90 1007.8
20260505161945 15 26 0.0 0.0 0.00 0.64 0.64 90 1007.7
20260505161431 15 26 0.0 0.0 0.00 0.64 0.64 89 1007.8
20260505160929 15 26 0.0 1.6 0.00 0.64 0.64 90 1007.7
20260505160429 15 26 0.0 1.6 0.03 0.64 0.64 90 1007.7
20260505152910 14 5 0.0 0.0 0.03 0.64 0.61 91 1008.0
20260505152404 14 5 0.0 0.0 0.03 0.64 0.61 93 1008.1
20260505151905 14 5 0.0 0.0 0.03 0.64 0.61 93 1008.2
20260505151401 14 5 0.0 0.0 0.05 0.64 0.61 93 1008.1
20260505150901 14 5 0.0 0.0 0.05 0.64 0.61 93 1008.2
20260505150803 14 5 0.0 0.0 0.05 0.61 0.61 93 1008.2
20260505140354 14 34 0.0 3.2 0.23 0.58 0.58 92 1008.8
20260505130134 15 49 0.0 9.7 0.33 0.33 0.00 89 1008.6
20260505124846 15 355 0.0 8.0 0.28 0.28 0.00 87 1008.5
20260505124346 15 139 0.0 8.0 0.23 0.23 0.00 86 1008.5
20260505123844 16 165 0.0 8.0 0.23 0.23 0.00 85 1008.5
20260505123351 16 84 0.0 4.8 0.15 0.15 0.00 82 1008.4
20260505122842 17 86 0.0 4.8 0.03 0.03 0.00 77 1008.2
20260505122335 18 32 0.0 4.8 0.00 0.00 0.00 72 1008.2
20260505121836 18 344 0.0 6.4 0.00 0.00 0.00 68 1008.1
20260505121409 19 303 1.6 11.3 0.00 0.00 0.00 65 1008.1
20260505121349 18 306 1.6 11.3 0.00 0.00 0.00 67 1008.1
20260505120339 19 337 1.6 11.3 0.00 0.00 0.00 63 1008.0
20260505115831 19 318 1.6 8.0 0.00 0.00 0.00 64 1008.0
20260505115329 19 342 1.6 11.3 0.00 0.00 0.00 64 1008.0
20260505114828 19 335 0.0 11.3 0.00 0.00 0.00 64 1008.0
20260505114817 19 311 1.6 11.3 0.00 0.00 0.00 63 1008.0
20260505113824 19 11 3.2 11.3 0.00 0.00 0.00 63 1008.0
20260505113325 20 35 1.6 9.7 0.00 0.00 0.00 62 1007.9
20260505112824 20 300 0.0 4.8 0.00 0.00 0.00 62 1008.0
20260505112322 20 309 0.0 8.0 0.00 0.00 0.00 62 1008.0
20260505111821 20 296 0.0 8.0 0.00 0.00 0.00 61 1008.1
20260505111318 20 300 1.6 8.0 0.00 0.00 0.00 61 1008.1
20260505110816 20 347 1.6 9.7 0.00 0.00 0.00 61 1008.1
20260505110313 20 275 1.6 9.7 0.00 0.00 0.00 59 1008.1
20260505101905 20 171 1.6 11.3 0.00 0.00 0.00 65 1008.6
20260505101810 20 15 1.6 11.3 0.00 0.00 0.00 63 1008.6
20260505100811 19 0 1.6 11.3 0.00 0.00 0.00 64 1008.7
20260505100306 20 355 0.0 6.4 0.00 0.00 0.00 66 1008.8
20260505095804 19 319 0.0 6.4 0.00 0.00 0.00 68 1008.9
20260505095307 18 34 3.2 11.3 0.00 0.00 0.00 65 1008.9
20260505094809 19 350 3.2 11.3 0.00 0.00 0.00 65 1008.9
20260505094304 19 355 1.6 9.7 0.00 0.00 0.00 64 1008.9
20260505093808 20 348 0.0 9.7 0.00 0.00 0.00 68 1008.9
20260505093308 20 311 1.6 6.4 0.00 0.00 0.00 68 1008.9
20260505092808 19 286 1.6 8.0 0.00 0.00 0.00 68 1009.0
20260505092305 18 323 1.6 8.0 0.00 0.00 0.00 70 1009.1
20260505091807 18 21 1.6 8.0 0.00 0.00 0.00 71 1009.2
20260505091306 18 315 1.6 9.7 0.00 0.00 0.00 71 1009.3
20260505090753 18 15 1.6 9.7 0.00 0.00 0.00 71 1009.3
20260505090249 18 325 3.2 14.5 0.00 0.00 0.00 71 1009.3
20260505085748 18 35 1.6 14.5 0.00 0.00 0.00 71 1009.3
20260505085254 18 19 1.6 9.7 0.00 0.00 0.00 72 1009.3
20260505084803 18 32 3.2 9.7 0.00 0.00 0.00 72 1009.3
20260505084250 17 16 3.2 9.7 0.00 0.00 0.00 71 1009.3
20260505083752 17 5 1.6 9.7 0.00 0.00 0.00 70 1009.4
20260505083254 17 341 1.6 9.7 0.00 0.00 0.00 71 1009.4
20260505082745 17 12 1.6 9.7 0.00 0.00 0.00 71 1009.4
20260505082243 17 5 1.6 6.4 0.00 0.00 0.00 73 1009.4
20260505081744 17 348 1.6 6.4 0.00 0.00 0.00 71 1009.5
20260505081318 17 336 0.0 8.0 0.00 0.00 0.00 71 1009.5
20260505081247 17 325 0.0 8.0 0.00 0.00 0.00 70 1009.5
20260505080248 17 284 0.0 8.0 0.00 0.00 0.00 71 1009.6
20260505075744 17 355 0.0 8.0 0.00 0.00 0.00 72 1009.6
20260505075242 17 355 1.6 8.0 0.00 0.00 0.00 71 1009.6
20260505074750 17 355 1.6 8.0 0.00 0.00 0.00 72 1009.6
20260505074415 17 321 0.0 8.0 0.00 0.00 0.00 73 1009.7
20260505074243 17 297 1.6 8.0 0.00 0.00 0.00 72 1009.7
20260505073237 17 310 0.0 8.0 0.00 0.00 0.00 73 1009.6
20260505072740 16 335 0.0 8.0 0.00 0.00 0.00 73 1009.7
20260505072231 16 324 0.0 8.0 0.00 0.00 0.00 74 1009.7
20260505071739 16 348 0.0 4.8 0.00 0.00 0.00 78 1009.7
20260505071229 16 350 0.0 4.8 0.00 0.00 0.00 75 1009.8
20260505070736 16 350 0.0 4.8 0.00 0.00 0.00 76 1009.8
20260505070230 16 309 0.0 3.2 0.00 0.00 0.00 77 1009.9
20260505065730 16 315 0.0 3.2 0.00 0.00 0.00 76 1009.9
20260505065240 15 293 0.0 1.6 0.00 0.00 0.00 77 1010.0
20260505064735 15 293 0.0 1.6 0.00 0.00 0.00 77 1010.0
20260505064235 15 341 0.0 6.4 0.00 0.00 0.00 78 1009.9
20260505063734 15 341 0.0 6.4 0.00 0.00 0.00 78 1009.9
20260505063649 15 351 0.0 6.4 0.00 0.00 0.00 80 1010.0
20260505063434 15 342 0.0 6.4 0.00 0.00 0.00 78 1010.0
20260505063152 15 345 1.6 6.4 0.00 0.00 0.00 81 1010.1
20260505061748 15 340 1.6 6.4 0.00 0.00 0.00 80 1010.1
20260505061245 15 326 0.0 4.8 0.00 0.00 0.00 82 1010.1
20260505060753 15 15 0.0 4.8 0.00 0.00 0.00 81 1010.2
20260505060233 15 22 0.0 0.0 0.00 0.00 0.00 83 1010.2
20260505055830 14 22 0.0 0.0 0.00 0.00 0.00 84 1010.2
20260505055736 14 22 0.0 0.0 0.00 0.00 0.00 83 1010.2
20260505055346 14 22 0.0 0.0 0.00 0.00 0.00 83 1010.2
20260505054235 14 22 0.0 0.0 0.00 0.00 0.00 84 1010.2
20260505053736 13 22 0.0 0.0 0.00 0.00 0.00 85 1010.2
20260505053238 13 22 0.0 0.0 0.00 0.00 0.00 84 1010.2
20260505052729 13 22 0.0 0.0 0.00 0.00 0.00 85 1010.2
20260505052224 13 22 0.0 0.0 0.00 0.00 0.00 85 1010.2
20260505051738 13 22 0.0 0.0 0.00 0.00 0.00 84 1010.2
20260505051226 13 22 0.0 0.0 0.00 0.00 0.00 85 1010.2
20260505050720 13 22 0.0 0.0 0.00 0.00 0.00 84 1010.2
20260505050225 13 22 0.0 0.0 0.00 0.00 0.00 85 1010.2